Date String (YYYY-MM-DD hh:mm:ss) UTC,Instrument flags,Ambient pressure (hPa),Sample flow (lpm),Bypass flow (lpm),Sample temperature (°C),Ambient temperature (°C),ASC tube jacket temperature (°C),LED temperature (°C),Box temperature (°C),Sample RH (%),Span deviation,Mass concentration (μg/m³),Mass concentration (μg/m³),Mass concentration (μg/m³)
DateTimeUTC,F1_M11,P_M11,Q1_M11,Q2_M11,T1_M11,T2_M11,T3_M11,T4_M11,T5_M11,U1_M11,ZSPAN_M11,X0_M11,X2_M11,X1_M11
2022-08-27 14:00:00,,0824.1,5.01,0.00,30.6,29.5,00.0,39.4,32.4,24.3,0000.0,0008.17,0004.39,0003.79
2022-08-27 14:01:00,,0824.1,4.99,0.00,30.6,29.5,00.0,39.4,32.4,25.3,0000.0,0007.99,0004.43,0003.82
2022-08-27 14:02:00,,0824.1,5.01,0.00,30.6,28.6,00.0,39.4,32.4,26.2,0000.0,0007.95,0004.45,0003.85
2022-08-27 14:03:00,,0824.1,5.00,0.00,30.6,27.4,00.0,39.3,32.2,26.0,0000.0,0008.24,0004.49,0003.87
2022-08-27 14:04:00,,0824.1,5.00,0.00,30.5,27.2,00.0,39.3,32.2,26.1,0000.0,0008.47,0004.52,0003.90
2022-08-27 14:05:00,,0824.1,5.01,0.00,30.4,27.4,00.0,39.2,32.1,25.4,0000.0,0008.95,0004.52,0003.91
2022-08-27 14:06:00,,0824.1,4.99,0.00,30.4,27.7,00.0,39.2,32.0,26.0,0000.0,0009.05,0004.53,0003.92
2022-08-27 14:07:00,,0824.1,5.00,0.00,30.3,28.0,00.0,39.1,32.0,26.5,0000.0,0008.89,0004.48,0003.92
2022-08-27 14:08:00,,0824.1,5.00,0.00,30.3,28.2,00.0,39.1,32.0,27.1,0000.0,0008.89,0004.49,0003.93
2022-08-27 14:09:00,,0824.1,4.98,0.00,30.3,28.4,00.0,39.1,32.0,26.9,0000.0,0009.24,0004.52,0003.94
2022-08-27 14:10:00,,0824.1,5.00,0.00,30.3,28.6,00.0,39.1,32.0,27.4,0000.0,0010.00,0004.57,0003.95
2022-08-27 14:11:00,,0824.1,5.00,0.00,30.3,28.7,00.0,39.1,32.0,26.8,0000.0,0010.40,0004.52,0003.94
2022-08-27 14:12:00,,0824.1,4.99,0.00,30.3,28.8,00.0,39.1,32.0,25.5,0000.0,0010.44,0004.50,0003.94
2022-08-27 14:13:00,,0824.1,4.99,0.00,30.3,28.9,00.0,39.1,32.1,25.9,0000.0,0010.67,0004.51,0003.92
2022-08-27 14:14:00,,0824.1,5.01,0.00,30.3,29.0,00.0,39.1,32.1,25.9,0000.0,0010.75,0004.50,0003.91
2022-08-27 14:15:00,,0824.1,4.99,0.00,30.3,29.0,00.0,39.1,32.1,25.8,0000.0,0010.89,0004.48,0003.90
2022-08-27 14:16:00,,0824.2,5.01,0.00,30.3,29.1,00.0,39.1,32.1,25.9,0000.0,0011.00,0004.53,0003.91
2022-08-27 14:17:00,,0824.2,4.99,0.00,30.3,29.1,00.0,39.1,32.1,26.5,0000.0,0011.01,0004.55,0003.92
2022-08-27 14:18:00,,0824.2,4.99,0.00,30.3,29.2,00.0,39.1,32.2,26.8,0000.0,0011.38,0004.63,0003.95
2022-08-27 14:19:00,,0824.2,5.01,0.00,30.4,29.2,00.0,39.1,32.2,26.5,0000.0,0011.33,0004.62,0003.97
2022-08-27 14:20:00,,0824.2,4.99,0.00,30.4,29.2,00.0,39.1,32.2,26.5,0000.0,0010.98,0004.61,0003.98
2022-08-27 14:21:00,,0824.2,5.00,0.00,30.4,29.3,00.0,39.2,32.2,26.8,0000.0,0010.78,0004.64,0003.99
2022-08-27 14:22:00,,0824.2,5.01,0.00,30.4,29.3,00.0,39.2,32.2,26.4,0000.0,0010.53,0004.68,0004.00
2022-08-27 14:23:00,,0824.3,5.00,0.00,30.4,29.3,00.0,39.2,32.3,26.7,0000.0,0010.54,0004.74,0004.02
2022-08-27 14:24:00,,0824.2,5.00,0.00,30.5,29.4,00.0,39.2,32.3,27.1,0000.0,0010.81,0004.80,0004.05
2022-08-27 14:25:00,,0824.1,5.00,0.00,30.5,29.0,00.0,39.2,32.3,26.8,0000.0,0010.56,0004.85,0004.07
2022-08-27 14:26:00,,0824.1,5.01,0.00,30.5,27.7,00.0,39.1,32.2,26.8,0000.0,0010.23,0004.86,0004.09
2022-08-27 14:27:00,,0824.1,4.98,0.00,30.4,27.0,00.0,39.1,32.1,25.6,0000.0,0009.65,0004.82,0004.08
2022-08-27 14:28:00,,0824.1,5.01,0.00,30.3,27.1,00.0,39.1,31.9,24.0,0000.0,0009.55,0004.80,0004.08
2022-08-27 14:29:00,,0824.2,4.99,0.00,30.2,27.4,00.0,39.0,31.8,23.9,0000.0,0009.11,0004.71,0004.06
2022-08-27 14:30:00,,0824.2,5.01,0.00,30.2,27.7,00.0,39.0,31.8,24.2,0000.0,0009.07,0004.70,0004.04
2022-08-27 14:31:00,,0824.2,4.99,0.00,30.2,28.0,00.0,39.0,31.8,21.3,0000.0,0009.50,0004.66,0004.01
2022-08-27 14:32:00,,0824.2,5.00,0.00,30.1,28.2,00.0,39.0,31.9,22.5,0000.0,0009.26,0004.56,0003.97
2022-08-27 14:33:00,,0824.2,4.99,0.00,30.1,28.4,00.0,38.9,31.9,20.8,0000.0,0008.83,0004.47,0003.93
2022-08-27 14:34:00,,0824.2,5.01,0.00,30.1,28.5,00.0,38.9,31.9,20.6,0000.0,0008.80,0004.41,0003.87
2022-08-27 14:35:00,,0824.2,5.00,0.00,30.1,28.7,00.0,38.9,32.0,20.6,0000.0,0008.28,0004.28,0003.81
2022-08-27 14:36:00,,0824.2,5.01,0.00,30.2,28.8,00.0,38.9,32.0,20.9,0000.0,0008.09,0004.17,0003.75
2022-08-27 14:37:00,,0824.2,4.99,0.00,30.2,28.8,00.0,38.9,32.0,21.3,0000.0,0008.01,0004.12,0003.70
2022-08-27 14:38:00,,0824.2,5.00,0.00,30.2,28.9,00.0,38.9,32.0,21.0,0000.0,0007.97,0004.08,0003.66
2022-08-27 14:39:00,,0824.3,5.00,0.00,30.2,29.0,00.0,39.0,32.0,21.0,0000.0,0008.05,0004.08,0003.63
2022-08-27 14:40:00,,0824.3,5.00,0.00,30.2,29.0,00.0,39.0,32.1,20.9,0000.0,0008.07,0004.05,0003.59
2022-08-27 14:41:00,,0824.2,5.01,0.00,30.2,29.1,00.0,39.0,32.1,21.1,0000.0,0008.03,0004.02,0003.56
2022-08-27 14:42:00,,0824.2,4.99,0.00,30.2,29.1,00.0,39.0,32.1,20.7,0000.0,0007.36,0003.99,0003.55
2022-08-27 14:43:00,,0824.2,5.01,0.00,30.3,29.2,00.0,39.0,32.1,20.9,0000.0,0007.06,0003.97,0003.52
2022-08-27 14:44:00,,0824.2,4.99,0.00,30.3,29.2,00.0,39.0,32.2,21.1,0000.0,0007.14,0004.01,0003.53
2022-08-27 14:45:00,,0824.3,4.99,0.00,30.3,29.3,00.0,39.1,32.2,21.0,0000.0,0007.05,0003.99,0003.53
2022-08-27 14:46:00,,0824.2,5.00,0.00,30.4,28.7,00.0,39.0,32.2,21.0,0000.0,0007.95,0004.00,0003.54
2022-08-27 14:47:00,,0824.2,5.02,0.00,30.3,27.4,00.0,39.0,32.0,20.4,0000.0,0007.81,0003.98,0003.54
2022-08-27 14:48:00,,0824.2,5.01,0.00,30.3,27.0,00.0,39.0,32.0,20.3,0000.0,0008.06,0003.98,0003.53
2022-08-27 14:49:00,,0824.3,4.99,0.00,30.2,27.2,00.0,38.9,31.8,21.0,0000.0,0008.07,0003.98,0003.52
2022-08-27 14:50:00,,0824.3,5.01,0.00,30.1,27.6,00.0,38.9,31.7,21.4,0000.0,0008.11,0004.00,0003.52
2022-08-27 14:51:00,,0824.3,5.00,0.00,30.1,27.8,00.0,38.9,31.8,21.8,0000.0,0008.22,0004.02,0003.54
2022-08-27 14:52:00,,0824.3,5.00,0.00,30.1,28.1,00.0,38.9,31.8,22.6,0000.0,0008.25,0004.02,0003.55
2022-08-27 14:53:00,,0824.3,4.99,0.00,30.1,28.3,00.0,38.9,31.8,21.5,0000.0,0008.96,0004.05,0003.55
2022-08-27 14:54:00,,0824.4,4.99,0.00,30.1,28.5,00.0,38.9,31.9,22.3,0000.0,0009.25,0004.07,0003.57
2022-08-27 14:55:00,,0824.3,5.01,0.00,30.1,28.6,00.0,38.9,31.9,22.9,0000.0,0009.26,0004.10,0003.60
2022-08-27 14:56:00,,0824.2,5.00,0.00,30.1,28.7,00.0,38.9,31.9,22.8,0000.0,0009.28,0004.12,0003.61
2022-08-27 14:57:00,,0824.3,5.00,0.00,30.1,28.8,00.0,38.9,32.0,21.7,0000.0,0008.62,0004.14,0003.63
2022-08-27 14:58:00,,0824.2,5.01,0.00,30.1,28.9,00.0,38.9,32.0,21.9,0000.0,0009.26,0004.15,0003.64
2022-08-27 14:59:00,,0824.2,4.99,0.00,30.1,29.0,00.0,38.9,32.0,22.1,0000.0,0009.29,0004.17,0003.66
